This is the latest recevied weather packets stored in our database for station/object YU7OR-2. If no packets are shown the sender has not sent any weather packets the latest 10 day(s).
| Time | Temp. | Humidity | Pressure | Rain* | Wind** | Luminosity | Snow |
|---|---|---|---|---|---|---|---|
| 1777268244 | 7.22° C | 58% | 1020.4 hPa | 0 mm | - | - | - |
| 1777267949 | 7.22° C | 57% | 1020.2 hPa | 0 mm | - | - | - |
| 1777267669 | 7.22° C | 56% | 1020.3 hPa | 0 mm | - | - | - |
| 1777267374 | 7.22° C | 57% | 1020 hPa | 0 mm | - | - | - |
| 1777267083 | 6.67° C | 57% | 1020 hPa | 0 mm | - | - | - |
| 1777266820 | 6.67° C | 57% | 1020.1 hPa | 0 mm | - | - | - |
| 1777266538 | 6.67° C | 57% | 1020 hPa | 0 mm | - | - | - |
| 1777266254 | 6.67° C | 57% | 1020 hPa | 0 mm | - | - | - |
| 1777266004 | 6.11° C | 58% | 1019.8 hPa | 0 mm | - | - | - |
| 1777265729 | 6.11° C | 58% | 1019.8 hPa | 0 mm | - | - | - |
| 1777265444 | 6.11° C | 58% | 1019.6 hPa | 0 mm | - | - | - |
| 1777265179 | 5.56° C | 58% | 1019.6 hPa | 0 mm | - | - | - |
| 1777264889 | 5.56° C | 58% | 1019.6 hPa | 0 mm | - | - | - |
| 1777264644 | 5.56° C | 58% | 1019.6 hPa | 0 mm | - | - | - |
| 1777264344 | 5.56° C | 60% | 1019.6 hPa | 0 mm | - | - | - |
| 1777264095 | 5.56° C | 60% | 1019.5 hPa | 0 mm | - | - | - |
| 1777263834 | 5.56° C | 60% | 1019.5 hPa | 0 mm | - | - | - |
| 1777263559 | 5.56° C | 60% | 1019.4 hPa | 0 mm | - | - | - |
| 1777263314 | 5° C | 56% | 1019.4 hPa | 0 mm | - | - | - |
| 1777263069 | 5° C | 57% | 1019.5 hPa | 0 mm | - | - | - |
| 1777262819 | 5° C | 57% | 1019.5 hPa | 0 mm | - | - | - |
| 1777262554 | 5° C | 58% | 1019.4 hPa | 0 mm | - | - | - |
| 1777262309 | 5° C | 56% | 1019.3 hPa | 0 mm | - | - | - |
| 1777262059 | 5.56° C | 57% | 1019.3 hPa | 0 mm | - | - | - |
| 1777261779 | 5° C | 56% | 1019.2 hPa | 0 mm | - | - | - |
* Rain latest hour (hover to see other rain measurements)
** Current wind speed in m/s (hover to see current wind gust speed)